Location: Rancho Del Sol Observatory
(38.7214°N, 120.6350°W)
Time: 09:28:53
(UTC-07:00)

Cosmos 2221 Rocket - Visible Passes

Search period start: 30 May 2015 00:00
Search period end: 09 June 2015 00:00
Orbit: 620 x 650 km, 82.5° (Epoch: 29 May)

Date Brightness Start Highest point End Pass type
(mag) Time Alt. Az. Time Alt. Az. Time Alt. Az.
30 May 4.3 02:01:52 10° N 02:05:39 50° NE 02:05:39 50° NE visible
30 May 5.9 03:42:28 10° WNW 03:43:07 11° WNW 03:43:07 11° WNW visible
31 May 4.1 02:24:13 10° NNW 02:27:44 52° NW 02:27:44 52° NW visible
01 Jun 5.6 01:09:18 10° NNE 01:12:21 21° ENE 01:12:21 21° ENE visible
01 Jun 5.0 02:47:02 10° NNW 02:49:49 27° WNW 02:49:49 27° WNW visible
02 Jun 4.7 01:31:00 10° N 01:34:28 39° NE 01:34:28 39° NE visible
02 Jun 5.8 03:10:41 10° NW 03:11:56 13° WNW 03:11:56 13° WNW visible
03 Jun 4.3 01:53:14 10° N 01:56:35 51° NNW 01:56:35 51° NNW visible
04 Jun 5.8 00:38:41 10° NNE 00:41:15 17° ENE 00:41:15 17° ENE visible
04 Jun 4.9 02:15:54 10° NNW 02:18:44 30° WNW 02:18:44 30° WNW visible
05 Jun 5.0 01:00:10 10° N 01:03:24 32° NE 01:03:24 32° NE visible
05 Jun 5.7 02:39:13 10° NW 02:40:53 16° WNW 02:40:53 16° WNW visible
06 Jun 4.4 01:22:16 10° N 01:25:34 49° N 01:25:34 49° N visible
07 Jun 5.9 00:08:12 10° NE 00:10:17 14° ENE 00:10:17 14° ENE visible
07 Jun 4.8 01:44:48 10° NNW 01:47:45 35° NW 01:47:45 35° NW visible
08 Jun 5.2 00:29:21 10° NNE 00:32:28 27° ENE 00:32:28 27° ENE visible
08 Jun 5.6 02:07:54 10° NW 02:09:57 19° WNW 02:09:57 19° WNW visible
